Regional Weather Roundup
Issued by NWS

Home | Current Version | Previous Version | Graphics & Text | Print | Product List | Glossary On
Versions: 1 2 3 4 5 6 7 8 9 10 11 12 13 14 15 16 17 18 19 20 21 22 23 24 25 26 27 28 29 30 31 32 33 34 35 36 37 38 39 40 41 42 43 44 45 46 47 48 49 50
000
ASUS43 KLOT 301312
RWRIL

ILLINOIS REGIONAL WEATHER ROUNDUP
NATIONAL WEATHER SERVICE CHICAGO/ROMEOVILLE IL
800 AM CDT FRI SEP 30 2016

NOTE: "FAIR" INDICATES FEW OR NO CLOUDS BELOW 12,000 FEET WITH NO
SIGNIFICANT WEATHER AND/OR OBSTRUCTIONS TO VISIBILITY.

* THESE STATIONS ARE NOT UNDER NWS QUALITY CONTROL. THEY ALSO MAY NOT
  REPORT WEATHER SUCH AS PRECIPITATION OR FOG.

ILZ001-002-007-009-015-016-024-301400-
NORTHWEST ILLINOIS

CITY           SKY/WX    TMP DP  RH WIND       PRES   REMARKS
MOLINE         CLOUDY    59  54  83 N9        30.19S
STERLING*      CLOUDY    60  57  89 N10       30.17F
SAVANNA*       CLOUDY    59  55  87 N8        30.21S
$$

ILZ003-004-008-010-011-017-018-301400-
NORTH CENTRAL ILLINOIS

CITY           SKY/WX    TMP DP  RH WIND       PRES   REMARKS
ROCKFORD       DRIZZLE   61  56  83 NE14      30.20S
FREEPORT*      CLOUDY    58  55  89 N8        30.21F
ROCHELLE*      DRIZZLE   58  58  98 N10       30.17F
DE KALB*       CLOUDY    60  58  94 NE10G16   30.17S
$$

ILZ005-006-012>014-019>023-301400-
NORTHEAST ILLINOIS

CITY           SKY/WX    TMP DP  RH WIND       PRES   REMARKS
CHICAGO-OHARE  CLOUDY    61  59  93 NE12      30.14S
CHICAGO-MIDWAY CLOUDY    63  59  87 NE7       30.13S
AURORA         CLOUDY    62  59  90 NE15      30.14S
LANSING*       LGT RAIN  61  60  99 N8        30.11F
JOLIET*        CLOUDY    62  61  94 NE10G16   30.13S
WAUKEGAN       CLOUDY    62  59  90 NE12      30.16F
DUPAGE AIRPORT CLOUDY    61  58  90 NE10      30.14S
KANKAKEE*      DRIZZLE   60  59  96 CALM      30.11S
WHEELING       CLOUDY    61  59  93 N8        30.16F
MORRIS*        CLOUDY    61  59  92 NE5       30.11S
ROMEOVILLE*    CLOUDY    60  60 100 NE13      30.13S
NORTHERLY ISL    N/A     61  58  90 NE10        N/A
$$

LMZ740>746-301400-
SOUTHERN LAKE MICHIGAN

STATION/POSITION SKY/WX   TEMP    WIND        PRES    VSBY  WAVE
                          AIR SEA DIR/SP/G                  HT/PER
                          (F)     (DEG/KT/KT) (MB)    (MI)  (FT/S)
SOUTHERN BUOY              62 68   60/ 21/ 27 1020.9F         5/ 6
WILMETTE HARBOR            61 57   70/ 14/ 19   N/A           5/ 6
HARRISON CRIB              64      40/ 19/ 20   N/A
BURNHAM HARBOR             61      10/  8/ 13   N/A
CALUMET HARBOR             62      10/ 11/ 15 1019.5F
BURNS HARBOR               62      40/ 24/ 26 1019.6F
MICHIGAN CITY              60      10/ 21/ 23   N/A
MICHIGAN CITY 6N           62 64   40/ 16/ 21   N/A           6/ 6
ST. JOSEPH                 56 54   10/ 10/ 14 1020.5          3/ 6
$$

ILZ025>027-034>036-040-047-049-050-058-095>099-301400-
WEST-CENTRAL ILLINOIS

CITY           SKY/WX    TMP DP  RH WIND       PRES   REMARKS
QUINCY         MOSUNNY   57  54  89 N8        30.16S
GALESBURG*     CLOUDY    58  55  88 N13G18    30.17S
MACOMB*        PTSUNNY   59  56  89 N12       30.18S
JACKSONVILLE*  CLOUDY    60  56  88 N7        30.13S
PITTSFIELD*    MOSUNNY   58  55  91 NW5       30.15S
$$

ILZ028>032-037-038-041>044-048-051>054-059>061-301400-
CENTRAL ILLINOIS

CITY           SKY/WX    TMP DP  RH WIND       PRES   REMARKS
PONTIAC        CLOUDY    62  62 100 NE12      30.12S
BLOOMINGTON    LGT RAIN  59  58  96 N10       30.11F FOG
DECATUR        CLOUDY    60  58  92 N9        30.09F
PEORIA         CLOUDY    59  59 100 N8        30.13F FOG
LACON*         DRIZZLE   58  57  96 N8        30.13S
LINCOLN*       DRIZZLE   60  60 100 N7        30.10F
SPRINGFIELD    CLOUDY    60  58  92 N10       30.12R
TAYLORVILLE    LGT RAIN  58  58  99 N9        30.10S
$$

ILZ033-039-045-046-055>057-062-063-301400-
EAST-CENTRAL ILLINOIS

CITY           SKY/WX    TMP DP  RH WIND       PRES   REMARKS
CHAMPAIGN      CLOUDY    60  57  89 N13       30.08F
RANTOUL*       CLOUDY    61  60  95 NE10      30.09R
MATTOON        CLOUDY    59  57  93 N9        30.05F FOG
PARIS*         CLOUDY    59  59 100 CALM      30.07R FOG
$$

ILZ079-100>102-301400-
SOUTHWEST ILLINOIS

CITY           SKY/WX    TMP DP  RH WIND       PRES   REMARKS
ALTON          CLOUDY    59  55  88 NW7       30.11S
BELLEVILLE     CLOUDY    60  60  99 NW9       30.08F
CAHOKIA*       CLOUDY    62  57  83 NW10      30.10F
SPARTA*        CLOUDY    59  57  96 NW9       30.10R FOG
$$

ILZ064>066-069>071-074>076-080>082-084>086-088>090-092>094-301400-
SOUTH-CENTRAL ILLINOIS

CITY           SKY/WX    TMP DP  RH WIND       PRES   REMARKS
CARBONDALE     CLOUDY    60  59  96 NW6       30.07S
CAIRO*         PTSUNNY   60  59  95 W5        30.08R
EFFINGHAM*     CLOUDY    60  60 100 NW9       30.07S FOG
MARION         CLOUDY    61  59  94 NW9       30.08S FOG
MT. VERNON     CLOUDY    61  54  77 CALM      30.06S
CENTRALIA*     HVY RAIN  60  59  98 NW8       30.06S
SALEM*         DRIZZLE   60  58  93 NW8       30.07S
METROPOLIS*    CLOUDY    60  57  89 W3        30.07S
$$

ILZ067-068-072-073-078-083-087-091-301400-
SOUTHEAST ILLINOIS

CITY           SKY/WX    TMP DP  RH WIND       PRES   REMARKS
LAWRENCEVILLE  CLOUDY    61  58  90 N8        30.02F
FLORA*         RAIN      61  60  96 N7        30.05S
FAIRFIELD*     CLOUDY    59  59 100 CALM      30.04S
HARRISBURG*    CLOUDY    58  58  97 W7        30.06F FOG
ROBINSON*      PTSUNNY   59  59  99 N8        30.03S
CARMI*         CLOUDY    58  58 100 W5        30.04S FOG
$$

ABBREVIATIONS USED IN REMARKS
   TC - TEMPERATURE IN CELSIUS
  WCI - WIND CHILL INDEX
   HX - HEAT INDEX
  VSB - VISIBILITY
$$





USA.gov is the U.S. government's official web portal to all federal, state and local government web resources and services.